Find Starlink 33814

NORAD ID: 63582 Int'l Des: 2025-076 Owner: SPXS Country: US Constellation: starlink operational
LEOCIRCULAR

Current View

Loading 3D Globe...

About Starlink 33814

Starlink 33814 (NORAD 63582) is a starlink constellation satellite (v2 mini) launched Apr 14, 2025 by SPXS of US. It operates in LEO, CIRCULAR orbit with a mass of 575.00 kg.

About Starlink 33814

Description loading...

Upcoming Passes

Passes for default location (London). Set your location on the main map for personalized predictions.

Altitude History

Loading altitude history...

Two-Line Element Set

1 63582U 25076P 26168.14404433 .00014158 00000-0 52281-3 0 9990
2 63582 42.9987 119.7656 0002979 277.2005 82.8508 15.27592028 67049
Epoch: Jun 17, 2026 • Age: 11 hours

Current Status

Altitude 494.1 km
Velocity 7.62 km/s
Sub-Earth Point -42.50°S, 100.96°W
Launch Date Apr 14, 2025
Age 1.1 years
Type internet

Technical Details

Classification Payload
Mass 575.00 kg
Dry Mass 530.00 kg
Total Mass 575.00 kg
Length 0.30 m
Diameter 4.10 m
Span 29.00 m
Shape Box + pan
Manufacturer SPXS
Bus Type Starlink V2MO
Phase Status In Orbit
Owner/State SPXS/US

Most Searched